EZY711W EGKK-LFPG

Flight info

Callsign EZY711W
Flight time 0h 38m
Altitude 23000
Route SFD M605 HARDY/N0353F250 UM605 BIBAX
Aircraft A20N/M-SDE2E3FGHIRWXY/LB1

Departure

Time 2026-05-04 16:07
Airport London Gatwick Airport (EGKK)

Arrival

Time 2026-05-04 16:46
Airport Charles de Gaulle International Airport (LFPG)
Time Latitude Longitude Altitude Speed Heading
2026-05-04 15:45 51.15652 -0.17792 211 ft 0 kts 163°
2026-05-04 15:53 51.15654 -0.17793 211 ft 1 kts 163°
2026-05-04 15:53 51.15662 -0.17797 213 ft 2 kts 168°
2026-05-04 15:53 51.15675 -0.17801 217 ft 2 kts 179°
2026-05-04 15:54 51.15689 -0.17800 210 ft 2 kts 189°
2026-05-04 15:54 51.15704 -0.17795 215 ft 2 kts 199°
2026-05-04 15:54 51.15718 -0.17785 206 ft 2 kts 213°
2026-05-04 15:54 51.15730 -0.17770 215 ft 3 kts 247°
2026-05-04 15:55 51.15731 -0.17766 215 ft 0 kts 255°
2026-05-04 15:59 51.15731 -0.17767 204 ft 1 kts 255°
2026-05-04 15:59 51.15723 -0.17805 204 ft 7 kts 252°
2026-05-04 15:59 51.15705 -0.17905 215 ft 12 kts 260°
2026-05-04 15:59 51.15685 -0.18063 213 ft 17 kts 254°
2026-05-04 16:00 51.15657 -0.18275 208 ft 22 kts 258°
2026-05-04 16:00 51.15622 -0.18528 207 ft 26 kts 257°
2026-05-04 16:00 51.15587 -0.18780 214 ft 6 kts 253°
2026-05-04 16:00 51.15553 -0.18842 212 ft 9 kts 192°
2026-05-04 16:01 51.15490 -0.18815 208 ft 12 kts 167°
2026-05-04 16:01 51.15392 -0.18779 215 ft 17 kts 167°
2026-05-04 16:01 51.15260 -0.18733 211 ft 21 kts 171°
2026-05-04 16:01 51.15127 -0.18731 206 ft 16 kts 230°
2026-05-04 16:02 51.15105 -0.18911 206 ft 19 kts 258°
2026-05-04 16:02 51.15076 -0.19137 205 ft 23 kts 257°
2026-05-04 16:02 51.14936 -0.19500 212 ft 22 kts 253°
2026-05-04 16:03 51.14895 -0.19755 212 ft 26 kts 256°
2026-05-04 16:03 51.14853 -0.20065 210 ft 30 kts 259°
2026-05-04 16:03 51.14807 -0.20414 210 ft 34 kts 258°
2026-05-04 16:03 51.14757 -0.20784 209 ft 36 kts 257°
2026-05-04 16:04 51.14716 -0.21095 208 ft 22 kts 258°
2026-05-04 16:04 51.14702 -0.21204 205 ft 7 kts 256°
2026-05-04 16:04 51.14697 -0.21234 212 ft 3 kts 256°
2026-05-04 16:05 51.14684 -0.21298 211 ft 9 kts 243°
2026-05-04 16:05 51.14627 -0.21330 205 ft 9 kts 175°
2026-05-04 16:05 51.14582 -0.21313 211 ft 8 kts 163°
2026-05-04 16:06 51.14518 -0.21266 212 ft 11 kts 144°
2026-05-04 16:06 51.14565 -0.20863 208 ft 43 kts 77°
2026-05-04 16:07 51.14754 -0.19525 215 ft 135 kts 76°
2026-05-04 16:07 51.15338 -0.15492 1930 ft 142 kts 78°
2026-05-04 16:08 51.15528 -0.13910 2539 ft 150 kts 79°
2026-05-04 16:08 51.16221 -0.08143 4378 ft 211 kts 84°
2026-05-04 16:09 51.14976 -0.03634 5075 ft 241 kts 146°
2026-05-04 16:09 51.11475 -0.02771 5193 ft 273 kts 183°
2026-05-04 16:10 51.07713 -0.02452 5411 ft 276 kts 169°
2026-05-04 16:11 51.02138 -0.00115 5751 ft 278 kts 163°
2026-05-04 16:11 51.00287 0.00774 5863 ft 279 kts 163°
2026-05-04 16:12 50.94727 0.03426 5998 ft 280 kts 163°
2026-05-04 16:12 50.89160 0.06052 6001 ft 277 kts 163°
2026-05-04 16:13 50.85460 0.07791 6000 ft 276 kts 163°
2026-05-04 16:13 50.81793 0.09510 6000 ft 275 kts 163°
2026-05-04 16:14 50.78071 0.11251 6706 ft 280 kts 163°
2026-05-04 16:14 50.74631 0.13975 9365 ft 280 kts 142°
2026-05-04 16:15 50.69736 0.20318 11680 ft 336 kts 141°
2026-05-04 16:16 50.66032 0.25062 13760 ft 348 kts 141°
2026-05-04 16:16 50.60255 0.32429 16640 ft 362 kts 141°
2026-05-04 16:17 50.56289 0.37475 18465 ft 371 kts 142°
2026-05-04 16:18 50.50370 0.44988 19364 ft 376 kts 142°
2026-05-04 16:18 50.48355 0.47538 19469 ft 379 kts 142°
2026-05-04 16:19 50.42159 0.55361 19787 ft 380 kts 142°
2026-05-04 16:19 50.38077 0.60501 19974 ft 380 kts 142°
2026-05-04 16:20 50.31902 0.68255 19974 ft 378 kts 142°
2026-05-04 16:20 50.27791 0.73401 19973 ft 378 kts 142°
2026-05-04 16:21 50.21561 0.81179 19973 ft 380 kts 142°
2026-05-04 16:22 50.17437 0.86312 19974 ft 377 kts 142°
2026-05-04 16:22 50.11303 0.93928 19968 ft 378 kts 142°
2026-05-04 16:23 50.04987 1.01317 19972 ft 380 kts 150°
2026-05-04 16:24 49.95551 1.08481 19658 ft 373 kts 153°
2026-05-04 16:25 49.90919 1.11951 18359 ft 372 kts 153°
2026-05-04 16:26 49.81941 1.18685 15772 ft 360 kts 154°
2026-05-04 16:26 49.75254 1.23684 13930 ft 352 kts 155°
2026-05-04 16:27 49.70903 1.26925 12775 ft 342 kts 155°
2026-05-04 16:28 49.64524 1.31653 10926 ft 335 kts 154°
2026-05-04 16:28 49.58267 1.36287 10219 ft 327 kts 154°
2026-05-04 16:29 49.50716 1.41848 9966 ft 284 kts 153°
2026-05-04 16:30 49.45306 1.45840 9957 ft 288 kts 153°
2026-05-04 16:31 49.41676 1.48495 9966 ft 293 kts 153°
2026-05-04 16:31 49.36265 1.52524 9955 ft 288 kts 154°
2026-05-04 16:32 49.31004 1.56738 9320 ft 283 kts 133°
2026-05-04 16:33 49.29690 1.62189 8406 ft 276 kts 93°
2026-05-04 16:33 49.29487 1.68031 7542 ft 272 kts 92°
2026-05-04 16:34 49.29225 1.73784 6709 ft 270 kts 99°
2026-05-04 16:34 49.28537 1.76439 6314 ft 270 kts 122°
2026-05-04 16:35 49.24576 1.82474 5049 ft 267 kts 135°
2026-05-04 16:35 49.20587 1.88244 4617 ft 254 kts 135°
2026-05-04 16:36 49.19339 1.90077 4508 ft 243 kts 134°
2026-05-04 16:36 49.16997 1.93566 4127 ft 231 kts 134°
2026-05-04 16:37 49.14674 1.96992 4002 ft 232 kts 134°
2026-05-04 16:37 49.13508 1.98694 3998 ft 232 kts 134°
2026-05-04 16:37 49.11194 2.02063 3998 ft 231 kts 134°
2026-05-04 16:38 49.08853 2.05466 4002 ft 232 kts 134°
2026-05-04 16:39 49.05352 2.10557 4000 ft 229 kts 135°
2026-05-04 16:39 49.03032 2.13922 4002 ft 231 kts 135°
2026-05-04 16:40 49.00877 2.17485 3999 ft 227 kts 112°
2026-05-04 16:40 49.00783 2.21913 3998 ft 199 kts 82°
2026-05-04 16:41 49.01058 2.25749 3820 ft 176 kts 84°
2026-05-04 16:41 49.01341 2.31037 3171 ft 166 kts 85°
2026-05-04 16:42 49.01620 2.36344 2488 ft 170 kts 84°
2026-05-04 16:43 49.01810 2.39916 2033 ft 169 kts 85°
2026-05-04 16:43 49.01992 2.43365 1539 ft 160 kts 85°
2026-05-04 16:43 49.02085 2.45112 1535 ft 173 kts 85°
2026-05-04 16:44 49.02552 2.52732 366 ft 152 kts 96°
2026-05-04 16:45 49.02625 2.55243 358 ft 58 kts 84°
2026-05-04 16:46 49.02340 2.55971 354 ft 30 kts 174°
2026-05-04 16:46 49.02019 2.55834 354 ft 21 kts 219°
2026-05-04 16:47 49.01878 2.55433 358 ft 23 kts 275°
2026-05-04 16:47 49.01857 2.54949 354 ft 26 kts 266°
2026-05-04 16:48 49.01787 2.53992 363 ft 33 kts 260°
2026-05-04 16:48 49.01657 2.53704 361 ft 35 kts 212°
2026-05-04 16:49 49.01475 2.53742 354 ft 1 kts 123°
2026-05-04 16:49 49.01475 2.53781 355 ft 0 kts 75°